Location: �clusier
(49.9361°N, 2.7869°E)
Time: 04:41:29
(UTC+00:00)

Meteor 2-5 Rocket - Visible Passes

Search period start: 18 October 2021 00:00
Search period end: 28 October 2021 00:00
Orbit: 832 x 912 km, 81.2° (Epoch: 16 October)

Date Brightness Start Highest point End Pass type
(mag) Time Alt. Az. Time Alt. Az. Time Alt. Az.
18 Oct 6.5 18:11:56 10° NW 18:16:07 21° W 18:20:20 10° SW visible
19 Oct 6.6 18:06:28 10° NW 18:10:34 21° W 18:14:43 10° SW visible
20 Oct 7.2 04:01:55 10° E 04:02:56 10° ENE 04:03:56 10° ENE visible
20 Oct 4.2 05:39:43 10° S 05:45:11 68° E 05:50:44 10° NNE visible
20 Oct 6.7 18:01:01 10° NW 18:05:02 20° W 18:09:05 10° SW visible
21 Oct 7.1 03:55:55 10° E 03:57:23 11° ENE 03:58:51 10° ENE visible
21 Oct 4.1 05:34:11 10° S 05:39:40 70° E 05:45:14 10° NNE visible
21 Oct 6.7 17:55:35 10° NW 17:59:29 19° W 18:03:27 10° SW visible
22 Oct 7.0 03:50:01 10° E 03:51:49 12° ENE 03:53:38 10° ENE visible
22 Oct 4.0 05:28:38 10° S 05:34:08 73° E 05:39:44 10° NNE visible
22 Oct 6.7 17:50:09 10° NW 17:53:57 18° W 17:57:48 10° SW visible
23 Oct 6.9 03:44:10 10° E 03:46:16 12° E 03:48:22 10° ENE visible
23 Oct 3.9 05:23:06 10° S 05:28:37 76° E 05:34:14 10° NNE visible
23 Oct 6.7 17:44:43 10° NW 17:48:25 18° W 17:52:09 10° WSW visible
24 Oct 6.9 03:38:22 10° ESE 03:40:42 13° E 03:43:04 10° NE visible
24 Oct 3.9 05:17:34 10° S 05:23:06 79° E 05:28:44 10° NNE visible
24 Oct 6.7 17:39:17 10° NW 17:42:52 17° W 17:46:30 10° WSW visible
25 Oct 6.8 03:32:36 10° ESE 03:35:09 13° E 03:37:43 10° NE visible
25 Oct 3.8 05:12:02 10° S 05:17:34 82° E 05:23:13 10° NNE visible
25 Oct 6.7 17:33:52 10° NW 17:37:20 16° W 17:40:49 10° WSW visible
26 Oct 6.7 03:26:51 10° ESE 03:29:36 14° E 03:32:22 10° NE visible
26 Oct 3.8 05:06:31 10° S 05:12:03 85° E 05:17:43 10° NNE visible
26 Oct 6.8 17:28:27 10° NW 17:31:47 16° W 17:35:09 10° WSW visible
27 Oct 6.6 03:21:07 10° ESE 03:24:02 15° E 03:26:59 10° NE visible
27 Oct 3.7 05:00:59 10° S 05:06:33 88° E 05:12:13 10° NNE visible
27 Oct 6.8 17:23:03 10° NW 17:26:15 15° W 17:29:28 10° WSW visible
